Tracking 30685 objects as of 18-Jun-2025
HD Live streaming from Space Station
objects crossing your sky now

COSMOS 2353

Track COSMOS 2353 now!
10-day predictions
COSMOS 2353 is classified as:


NORAD ID: 25364
Int'l Code: 1998-036B
Perigee: 1,309.2 km
Apogee: 1,874.2 km
Inclination: 82.6 °
Period: 117.9 minutes
Semi major axis: 7962 km
RCS: 0.979 m2 (medium)
Launch date: June 15, 1998
Source: Commonwealth of Independent States (former USSR) (CIS)
Launch site: PLESETSK MISSILE AND SPACE COMPLEX (PKMTR)

Satellites have a single simultaneous earth-space and space-earth channel.
Your satellite tracking list
Your tracking list is empty




NASA's NSSDC Master Catalog

Two Line Element Set (TLE):
1 25364U 98036B   25167.84098650  .00000004  00000-0 -22040-4 0  9994
2 25364  82.5889 197.4683 0354752 241.8468 114.6337 12.21833393204410
Source of the keplerian elements: AFSPC